Quantico, VA

8:16 AM EST on December 08, 2019 (GMT -0500)
Quantico Marine Corps Air Facility

Weather History for KNYG - October, 2019

Change the Weather History Date:

Wednesday, October 16, 2019

  Actual Average Record
Temperature  
Mean Temperature 59 °F -  
Max Temperature 64 °F 64 °F 78 °F (2008)
Min Temperature 53 °F 46 °F 39 °F (2006)
Degree Days  
Heating Degree Days 6    
Growing Degree Days 9 (Base 50)    
Moisture  
Dew Point 55 °F    
Average Humidity 81    
Maximum Humidity 90    
Minimum Humidity 51    
Precipitation  
Precipitation 1.37 in - - ()
Sea Level Pressure  
Sea Level Pressure 29.76 in    
Wind  
Wind Speed 10 mph (SW)    
Max Wind Speed 18 mph    
Max Gust Speed 29 mph    
Visibility 8 miles    
Events Rain    
Averages and records for this station are not official NWS values.
T = Trace of Precipitation, MM = Missing Value Source: NWS Daily Summary

Daily Weather History Graph

Daily Weather History Graph

Search for Another Location

Airport or City:

Astronomy

Oct. 16, 2019 Rise Set
Actual Time 7:19 AM EDT 6:30 PM EDT
Civil Twilight 6:52 AM EDT 6:56 PM EDT
Nautical Twilight 6:21 AM EDT 7:27 PM EDT
Astronomical Twilight 5:50 AM EDT 7:58 PM EDT
Moon 8:23 PM EDT (10/16) 9:46 AM EDT (10/16)
Length of Visible Light 12h 04m
Length of Day
11h 10m
Waning Gibbous, 93% of the Moon is Illuminated
Oct 16
Waning Gibbous
Oct 21
Last Quarter
Oct 27
New
Nov 4
First Quarter
Nov 12
Full

Hourly Weather History & Observations

Time (EDT) Temp. Dew Point Humidity Pressure Visibility Wind Dir Wind Speed Gust Speed Precip Events Conditions
12:56 AM 62.1 °F 55.0 °F 78% 30.01 in 10.0 mi South 9.2 mph - N/A   Partly Cloudy
1:18 AM 63.0 °F 55.9 °F 78% 29.99 in 10.0 mi South 12.7 mph - N/A   Mostly Cloudy
1:56 AM 63.0 °F 57.0 °F 81% 29.99 in 10.0 mi SSE 6.9 mph - N/A   Overcast
2:56 AM 62.1 °F 57.0 °F 84% 29.97 in 10.0 mi ESE 5.8 mph - N/A   Overcast
3:30 AM 62.1 °F 57.9 °F 86% 29.94 in 10.0 mi SE 6.9 mph - N/A   Overcast
3:51 AM 62.6 °F 57.2 °F 82% 29.94 in 10.0 mi SSE 5.8 mph - N/A   Mostly Cloudy
3:56 AM 63.0 °F 59.0 °F 87% 29.94 in 10.0 mi South 6.9 mph - N/A   Overcast
4:14 AM 64.0 °F 60.1 °F 87% 29.93 in 10.0 mi South 18.4 mph - N/A   Overcast
4:56 AM 63.0 °F 59.0 °F 87% 29.92 in 10.0 mi SSW 13.8 mph - N/A   Overcast
5:56 AM 63.0 °F 60.1 °F 90% 29.89 in 10.0 mi South 13.8 mph - N/A   Overcast
6:56 AM 63.0 °F 57.9 °F 84% 29.90 in 10.0 mi SW 8.1 mph - N/A   Mostly Cloudy
7:27 AM 63.0 °F 59.0 °F 87% 29.88 in 8.0 mi SW 8.1 mph - N/A   Scattered Clouds
7:56 AM 63.0 °F 59.0 °F 87% 29.87 in 10.0 mi SSW 6.9 mph - N/A   Partly Cloudy
8:11 AM 64.0 °F 60.1 °F 87% 29.86 in 10.0 mi South 11.5 mph - N/A   Mostly Cloudy
8:56 AM 64.0 °F 60.1 °F 87% 29.84 in 10.0 mi South 10.4 mph - 0.00 in Rain Light Rain
9:14 AM 64.0 °F 60.1 °F 87% 29.82 in 10.0 mi South 9.2 mph - 0.00 in Rain Light Rain
9:25 AM 64.0 °F 60.1 °F 87% 29.82 in 6.0 mi SSE 8.1 mph - 0.01 in Rain Light Rain
9:56 AM 64.0 °F 60.1 °F 87% 29.78 in 6.0 mi South 11.5 mph - 0.04 in Rain Light Rain
10:29 AM 64.0 °F 57.9 °F 80% 29.76 in 3.0 mi SSW 17.3 mph - 0.02 in Rain Rain
10:39 AM 63.0 °F 57.0 °F 81% 29.75 in 2.0 mi SSW 11.5 mph - 0.07 in Rain Heavy Rain
10:54 AM 60.8 °F 57.2 °F 88% 29.74 in 2.0 mi WSW 5.8 mph - 0.16 in Rain Heavy Rain
10:56 AM 61.0 °F 57.0 °F 87% 29.74 in 2.0 mi WSW 6.9 mph - 0.17 in Rain Heavy Rain
11:56 AM 60.1 °F 57.0 °F 90% 29.69 in 2.0 mi NW 13.8 mph - 0.43 in Rain Rain
12:56 PM 59.0 °F 55.9 °F 90% 29.65 in 2.0 mi NNW 6.9 mph - 0.34 in Rain Heavy Rain
1:56 PM 57.9 °F 55.0 °F 90% 29.61 in 2.0 mi NNW 8.1 mph - 0.34 in Rain Rain
2:19 PM 57.9 °F 55.0 °F 90% 29.57 in 2.0 mi North 6.9 mph - 0.03 in Rain Light Rain
2:28 PM 59.0 °F 55.0 °F 87% 29.56 in 7.0 mi North 8.1 mph - 0.04 in Rain Light Rain
2:56 PM 59.0 °F 55.9 °F 90% 29.55 in 10.0 mi NW 5.8 mph - 0.05 in Rain Light Rain
3:56 PM 61.0 °F 57.0 °F 87% 29.55 in 10.0 mi NW 15.0 mph - 0.00 in   Overcast
4:56 PM 63.0 °F 55.0 °F 75% 29.54 in 10.0 mi NNW 13.8 mph 20.7 mph N/A   Mostly Cloudy
5:56 PM 60.1 °F 51.1 °F 72% 29.55 in 10.0 mi NW 13.8 mph 24.2 mph N/A   Partly Cloudy
6:56 PM 59.0 °F 45.0 °F 60% 29.57 in 10.0 mi NNW 18.4 mph 28.8 mph N/A   Clear
7:56 PM 55.9 °F 44.1 °F 64% 29.59 in 10.0 mi NW 9.2 mph - N/A   Clear
8:56 PM 54.0 °F 42.1 °F 64% 29.61 in 10.0 mi NW 6.9 mph - N/A   Scattered Clouds
9:56 PM 55.9 °F 39.0 °F 53% 29.62 in 10.0 mi NW 18.4 mph 25.3 mph N/A   Clear
10:56 PM 55.0 °F 37.0 °F 51% 29.63 in 10.0 mi West 10.4 mph - N/A   Clear
11:56 PM 53.1 °F 37.0 °F 55% 29.62 in 10.0 mi West 9.2 mph - N/A   Clear